{"data":{"norad_id":32260,"epoch":"2026-05-24T18:58:37.598016Z","epoch_age_seconds":89801,"freshness":"FRESH","line1":"1 32260U 07047A   26144.79071294 -.00000031  00000+0  00000+0 0  9990","line2":"2 32260  54.0788  81.0295 0165818  86.9308 274.9410  2.00556397136346","mean_motion":2.00556397,"eccentricity":0.0165818,"inclination_deg":54.0788,"raan_deg":81.0295,"arg_perigee_deg":86.9308,"mean_anomaly_deg":274.941,"bstar":0,"rev_number":13634,"period_min":718.00252773787,"perigee_km":19742.418185311,"apogee_km":20623.276037997,"semimajor_km":26560.984111654,"source":"CELESTRAK","updated_at":"2026-05-25T13:38:23.729852Z"}}